Location: Jefferson
(30.9666°N, 81.7901°W)
Time: 10:14:30
(UTC+00:00)

Envisat - Visible Passes

Search period start: 20 September 2024 00:00
Search period end: 30 September 2024 00:00
Orbit: 762 x 764 km, 98.3° (Epoch: 19 September)

Date Brightness Start Highest point End Pass type
(mag) Time Alt. Az. Time Alt. Az. Time Alt. Az.
20 Sep 5.8 07:45:46 10° NE 07:46:23 13° NE 07:46:23 13° NE visible
20 Sep 4.7 09:24:46 10° NNW 09:26:31 18° NNW 09:26:31 18° NNW visible
21 Sep 4.8 08:46:38 10° N 08:48:31 23° N 08:48:31 23° N visible
22 Sep 5.4 08:09:17 10° NNE 08:10:30 17° NNE 08:10:30 17° NNE visible
22 Sep 5.1 09:50:01 10° NW 09:50:39 12° NW 09:50:39 12° NW visible
23 Sep 4.8 09:11:01 10° N 09:12:38 19° NNW 09:12:38 19° NNW visible
24 Sep 5.1 08:33:10 10° NNE 08:34:38 19° N 08:34:38 19° N visible
25 Sep 5.8 07:56:07 10° NNE 07:56:36 12° NE 07:56:36 12° NE visible
25 Sep 5.0 09:35:50 10° NNW 09:36:45 13° NNW 09:36:45 13° NNW visible
26 Sep 5.0 08:57:23 10° N 08:58:44 18° N 08:58:44 18° N visible
27 Sep 5.5 08:19:48 10° NNE 08:20:42 15° NNE 08:20:42 15° NNE visible
28 Sep 5.1 09:21:56 10° NNW 09:22:49 14° NNW 09:22:49 14° NNW visible
29 Sep 5.2 08:43:50 10° N 08:44:48 16° N 08:44:48 16° N visible
